Terminal Aerodrome Forecast
Issued by NWS

Home | Current Version | Previous Version | Graphics & Text | Print | Product List | Glossary On
Versions: 1 2 3 4 5 6 7 8 9 10 11 12 13 14 15 16 17 18 19 20 21 22 23 24 25 26 27 28 29 30 31 32 33 34 35 36
000
FTUS43 KLOT 190500
TAFDPA
TAF
KDPA 190536Z 1906/2006 08004KT 4SM BR FEW005
     FM191000 10004KT 3SM BR FEW005
     FM191400 18009KT P6SM SCT250
     FM191700 18012G18KT P6SM SCT250=

USA.gov is the U.S. government's official web portal to all federal, state and local government web resources and services.